Time,TemperatureF,DewpointF,PressureIn,WindDirection,WindDirectionDegrees,WindSpeedMPH,WindSpeedGustMPH,Humidity,HourlyPrecipIn,Conditions,Clouds,dailyrainin,SoftwareType,DateUTC
2013-05-15 00:00:00,66.0,55.9,30.05,South,190,4.0,4.0,70,0.00,,,0.00,Wunderground v.1.15,2013-05-15 05:00:00,
2013-05-15 00:05:00,65.9,55.8,30.06,South,190,5.0,5.0,70,0.00,,,0.00,Wunderground v.1.15,2013-05-15 05:05:00,
2013-05-15 00:10:00,65.7,56.0,30.06,South,190,4.0,4.0,71,0.00,,,0.00,Wunderground v.1.15,2013-05-15 05:10:00,
2013-05-15 00:15:00,65.6,55.9,30.06,South,190,4.0,4.0,71,0.00,,,0.00,Wunderground v.1.15,2013-05-15 05:15:00,
2013-05-15 00:20:00,65.6,55.9,30.06,South,190,4.0,5.0,71,0.00,,,0.00,Wunderground v.1.15,2013-05-15 05:20:00,
2013-05-15 00:25:00,65.9,55.8,30.06,South,191,5.0,6.0,70,0.00,,,0.00,Wunderground v.1.15,2013-05-15 05:25:00,
2013-05-15 00:30:00,66.1,55.6,30.06,South,191,5.0,5.0,69,0.00,,,0.00,Wunderground v.1.15,2013-05-15 05:30:00,
2013-05-15 00:35:00,66.6,55.3,30.06,South,190,5.0,6.0,67,0.00,,,0.00,Wunderground v.1.15,2013-05-15 05:35:00,
2013-05-15 00:40:00,66.5,55.2,30.06,South,190,5.0,6.0,67,0.00,,,0.00,Wunderground v.1.15,2013-05-15 05:40:00,
2013-05-15 00:45:00,66.1,55.2,30.05,South,191,5.0,6.0,68,0.00,,,0.00,Wunderground v.1.15,2013-05-15 05:45:00,
2013-05-15 00:50:00,65.6,55.2,30.06,South,180,6.0,9.0,69,0.00,,,-99.99,WeatherLink 6.0.3,2013-05-15 05:50:00,
2013-05-15 00:54:00,65.5,55.1,30.06,SSW,192,6.0,7.0,69,0.00,,,0.00,Wunderground v.1.15,2013-05-15 05:54:00,
2013-05-15 01:00:00,65.3,54.9,30.06,South,190,6.0,7.0,69,0.00,,,0.00,Wunderground v.1.15,2013-05-15 06:00:00,
2013-05-15 01:04:00,65.2,54.8,30.06,SSW,192,6.0,7.0,69,0.00,,,0.00,Wunderground v.1.15,2013-05-15 06:04:00,
2013-05-15 01:05:00,65.2,54.8,30.06,South,180,6.0,9.0,69,0.00,,,-99.99,WeatherLink 6.0.3,2013-05-15 06:05:00,
2013-05-15 01:10:00,65.1,54.7,30.06,South,191,6.0,6.0,69,0.00,,,0.00,Wunderground v.1.15,2013-05-15 06:10:00,
2013-05-15 01:18:00,65.0,54.6,30.06,SSW,202,6.0,9.0,69,0.00,,,-99.99,WeatherLink 6.0.3,2013-05-15 06:18:00,
2013-05-15 01:20:00,64.8,54.4,30.06,South,180,5.0,9.0,69,0.00,,,-99.99,WeatherLink 6.0.3,2013-05-15 06:20:00,
2013-05-15 01:24:00,64.8,54.4,30.06,South,190,6.0,6.0,69,0.00,,,0.00,Wunderground v.1.15,2013-05-15 06:24:00,
2013-05-15 01:29:00,64.8,54.4,30.06,South,189,6.0,6.0,69,0.00,,,0.00,Wunderground v.1.15,2013-05-15 06:29:00,
2013-05-15 01:34:00,64.8,54.4,30.06,South,190,5.0,6.0,69,0.00,,,0.00,Wunderground v.1.15,2013-05-15 06:34:00,
2013-05-15 01:35:00,64.8,54.4,30.06,South,180,3.0,8.0,69,0.00,,,-99.99,WeatherLink 6.0.3,2013-05-15 06:35:00,
2013-05-15 01:40:00,64.7,53.9,30.06,South,190,4.0,4.0,68,0.00,,,0.00,Wunderground v.1.15,2013-05-15 06:40:00,
2013-05-15 01:45:00,65.1,54.3,30.05,South,190,4.0,5.0,68,0.00,,,0.00,Wunderground v.1.15,2013-05-15 06:45:00,
2013-05-15 01:50:00,65.1,54.3,30.06,South,188,5.0,5.0,68,0.00,,,0.00,Wunderground v.1.15,2013-05-15 06:50:00,
2013-05-15 02:00:00,64.5,54.1,30.06,South,190,5.0,6.0,69,0.00,,,0.00,Wunderground v.1.15,2013-05-15 07:00:00,
2013-05-15 02:05:00,64.5,54.1,30.06,South,190,4.0,6.0,69,0.00,,,0.00,Wunderground v.1.15,2013-05-15 07:05:00,
2013-05-15 02:10:00,64.5,53.7,30.06,South,189,2.0,3.0,68,0.00,,,0.00,Wunderground v.1.15,2013-05-15 07:10:00,
2013-05-15 02:15:00,64.3,53.9,30.06,South,188,3.0,6.0,69,0.00,,,0.00,Wunderground v.1.15,2013-05-15 07:15:00,
2013-05-15 02:20:00,64.1,53.7,30.06,South,190,5.0,5.0,69,0.00,,,0.00,Wunderground v.1.15,2013-05-15 07:20:00,
2013-05-15 02:25:00,64.0,53.6,30.05,South,191,5.0,8.0,69,0.00,,,0.00,Wunderground v.1.15,2013-05-15 07:25:00,
2013-05-15 02:30:00,64.1,53.3,30.05,South,186,5.0,6.0,68,0.00,,,0.00,Wunderground v.1.15,2013-05-15 07:30:00,
2013-05-15 02:35:00,64.1,53.3,30.05,South,180,1.0,6.0,68,0.00,,,-99.99,WeatherLink 6.0.3,2013-05-15 07:35:00,
2013-05-15 02:40:00,64.1,53.3,30.05,South,188,1.0,1.0,68,0.00,,,0.00,Wunderground v.1.15,2013-05-15 07:40:00,
2013-05-15 02:45:00,64.1,53.3,30.05,South,190,2.0,6.0,68,0.00,,,0.00,Wunderground v.1.15,2013-05-15 07:45:00,
2013-05-15 02:50:00,64.0,53.2,30.05,South,190,4.0,7.0,68,0.00,,,0.00,Wunderground v.1.15,2013-05-15 07:50:00,
2013-05-15 02:55:00,63.7,53.3,30.05,South,190,5.0,7.0,69,0.00,,,0.00,Wunderground v.1.15,2013-05-15 07:55:00,
2013-05-15 03:00:00,63.7,53.3,30.05,South,190,4.0,4.0,69,0.00,,,0.00,Wunderground v.1.15,2013-05-15 08:00:00,
2013-05-15 03:05:00,63.5,53.1,30.06,South,190,2.0,4.0,69,0.00,,,0.00,Wunderground v.1.15,2013-05-15 08:05:00,
2013-05-15 03:10:00,63.7,53.3,30.05,South,188,2.0,4.0,69,0.00,,,0.00,Wunderground v.1.15,2013-05-15 08:10:00,
2013-05-15 03:15:00,63.6,53.2,30.05,South,190,4.0,4.0,69,0.00,,,0.00,Wunderground v.1.15,2013-05-15 08:15:00,
2013-05-15 03:20:00,63.4,53.0,30.06,South,190,4.0,4.0,69,0.00,,,0.00,Wunderground v.1.15,2013-05-15 08:20:00,
2013-05-15 03:25:00,63.1,53.2,30.06,South,190,3.0,4.0,70,0.00,,,0.00,Wunderground v.1.15,2013-05-15 08:25:00,
2013-05-15 03:30:00,62.6,53.1,30.05,South,190,2.0,2.0,71,0.00,,,0.00,Wunderground v.1.15,2013-05-15 08:30:00,
2013-05-15 03:35:00,62.4,53.3,30.05,South,190,2.0,2.0,72,0.00,,,0.00,Wunderground v.1.15,2013-05-15 08:35:00,
2013-05-15 03:40:00,62.3,53.2,30.05,South,190,3.0,3.0,72,0.00,,,0.00,Wunderground v.1.15,2013-05-15 08:40:00,
2013-05-15 03:45:00,62.2,53.1,30.05,South,190,1.0,3.0,72,0.00,,,0.00,Wunderground v.1.15,2013-05-15 08:45:00,
2013-05-15 03:50:00,62.6,53.1,30.05,South,190,0.0,0.0,71,0.00,,,0.00,Wunderground v.1.15,2013-05-15 08:50:00,
2013-05-15 03:55:00,63.3,53.3,30.05,South,190,0.0,0.0,70,0.00,,,0.00,Wunderground v.1.15,2013-05-15 08:55:00,
2013-05-15 04:00:00,63.7,53.3,30.05,South,190,1.0,4.0,69,0.00,,,0.00,Wunderground v.1.15,2013-05-15 09:00:00,
2013-05-15 04:05:00,64.0,53.2,30.05,South,180,3.0,6.0,68,0.00,,,-99.99,WeatherLink 6.0.3,2013-05-15 09:05:00,
2013-05-15 04:10:00,63.7,53.3,30.05,South,188,3.0,4.0,69,0.00,,,0.00,Wunderground v.1.15,2013-05-15 09:10:00,
2013-05-15 04:15:00,63.3,53.3,30.05,South,187,3.0,4.0,70,0.00,,,0.00,Wunderground v.1.15,2013-05-15 09:15:00,
2013-05-15 04:20:00,62.7,53.2,30.05,South,180,3.0,5.0,71,0.00,,,-99.99,WeatherLink 6.0.3,2013-05-15 09:20:00,
2013-05-15 04:25:00,62.9,53.0,30.05,South,188,3.0,4.0,70,0.00,,,0.00,Wunderground v.1.15,2013-05-15 09:25:00,
2013-05-15 04:30:00,62.8,52.9,30.05,South,188,3.0,3.0,70,0.00,,,0.00,Wunderground v.1.15,2013-05-15 09:30:00,
2013-05-15 04:35:00,62.9,53.0,30.05,South,187,2.0,3.0,70,0.00,,,0.00,Wunderground v.1.15,2013-05-15 09:35:00,
2013-05-15 04:40:00,63.2,52.9,30.05,South,188,1.0,1.0,69,0.00,,,0.00,Wunderground v.1.15,2013-05-15 09:40:00,
2013-05-15 04:45:00,63.3,52.6,30.05,South,188,0.0,1.0,68,0.00,,,0.00,Wunderground v.1.15,2013-05-15 09:45:00,
2013-05-15 04:50:00,62.7,52.8,30.05,South,187,0.0,0.0,70,0.00,,,0.00,Wunderground v.1.15,2013-05-15 09:50:00,
2013-05-15 04:55:00,61.8,52.7,30.05,South,188,0.0,0.0,72,0.00,,,0.00,Wunderground v.1.15,2013-05-15 09:55:00,
2013-05-15 05:00:00,61.6,52.9,30.05,South,188,0.0,0.0,73,0.00,,,0.00,Wunderground v.1.15,2013-05-15 10:00:00,
2013-05-15 05:05:00,61.5,53.1,30.05,South,188,0.0,0.0,74,0.00,,,0.00,Wunderground v.1.15,2013-05-15 10:05:00,
2013-05-15 05:15:00,62.1,53.3,30.05,South,187,0.0,0.0,73,0.00,,,0.00,Wunderground v.1.15,2013-05-15 10:15:00,
2013-05-15 05:20:00,62.2,53.4,30.05,South,187,0.0,0.0,73,0.00,,,0.00,Wunderground v.1.15,2013-05-15 10:20:00,
2013-05-15 05:25:00,62.5,53.7,30.05,South,188,0.0,0.0,73,0.00,,,0.00,Wunderground v.1.15,2013-05-15 10:25:00,
2013-05-15 05:30:00,62.9,54.1,30.05,South,188,0.0,0.0,73,0.00,,,0.00,Wunderground v.1.15,2013-05-15 10:30:00,
2013-05-15 05:35:00,63.4,54.2,30.05,South,188,2.0,4.0,72,0.00,,,0.00,Wunderground v.1.15,2013-05-15 10:35:00,
2013-05-15 05:40:00,63.6,54.0,30.05,South,188,3.0,5.0,71,0.00,,,0.00,Wunderground v.1.15,2013-05-15 10:40:00,
2013-05-15 05:48:00,63.6,54.0,30.05,South,180,3.0,7.0,71,0.00,,,-99.99,WeatherLink 6.0.3,2013-05-15 10:48:00,
2013-05-15 05:50:00,64.0,54.4,30.05,South,180,5.0,8.0,71,0.00,,,-99.99,WeatherLink 6.0.3,2013-05-15 10:50:00,
2013-05-15 05:55:00,64.2,54.2,30.05,South,185,5.0,5.0,70,0.00,,,0.00,Wunderground v.1.15,2013-05-15 10:55:00,
2013-05-15 06:00:00,64.0,54.0,30.05,South,183,4.0,5.0,70,0.00,,,0.00,Wunderground v.1.15,2013-05-15 11:00:00,
2013-05-15 06:05:00,63.8,54.2,30.05,South,178,5.0,5.0,71,0.00,,,0.00,Wunderground v.1.15,2013-05-15 11:05:00,
2013-05-15 06:10:00,63.7,54.1,30.05,South,184,5.0,5.0,71,0.00,,,0.00,Wunderground v.1.15,2013-05-15 11:10:00,
2013-05-15 06:15:00,63.5,54.3,30.05,South,184,4.0,5.0,72,0.00,,,0.00,Wunderground v.1.15,2013-05-15 11:15:00,
2013-05-15 06:20:00,63.2,54.4,30.05,South,180,3.0,6.0,73,0.00,,,-99.99,WeatherLink 6.0.3,2013-05-15 11:20:00,
2013-05-15 06:25:00,63.2,54.4,30.05,South,182,3.0,4.0,73,0.00,,,0.00,Wunderground v.1.15,2013-05-15 11:25:00,
2013-05-15 06:30:00,63.2,54.4,30.05,South,182,4.0,4.0,73,0.00,,,0.00,Wunderground v.1.15,2013-05-15 11:30:00,
2013-05-15 06:35:00,63.2,54.4,30.05,South,181,2.0,4.0,73,0.00,,,0.00,Wunderground v.1.15,2013-05-15 11:35:00,
2013-05-15 06:40:00,63.1,54.7,30.05,South,181,2.0,2.0,74,0.00,,,0.00,Wunderground v.1.15,2013-05-15 11:40:00,
2013-05-15 06:49:00,63.1,54.7,30.05,South,180,2.0,5.0,74,0.00,,,-99.99,WeatherLink 6.0.3,2013-05-15 11:49:00,
2013-05-15 06:50:00,63.5,55.4,30.05,South,180,4.0,7.0,75,0.00,,,-99.99,WeatherLink 6.0.3,2013-05-15 11:50:00,
2013-05-15 06:55:00,63.7,55.6,30.06,South,184,4.0,4.0,75,0.00,,,0.00,Wunderground v.1.15,2013-05-15 11:55:00,
2013-05-15 07:03:00,63.7,55.6,30.06,South,180,4.0,6.0,75,0.00,,,-99.99,WeatherLink 6.0.3,2013-05-15 12:03:00,
2013-05-15 07:05:00,64.0,56.3,30.06,South,180,4.0,9.0,76,0.00,,,-99.99,WeatherLink 6.0.3,2013-05-15 12:05:00,
2013-05-15 07:10:00,64.4,56.3,30.06,South,183,4.0,4.0,75,0.00,,,0.00,Wunderground v.1.15,2013-05-15 12:10:00,
2013-05-15 07:15:00,64.7,56.6,30.06,South,182,5.0,5.0,75,0.00,,,0.00,Wunderground v.1.15,2013-05-15 12:15:00,
2013-05-15 07:20:00,65.0,56.5,30.06,South,180,5.0,8.0,74,0.00,,,-99.99,WeatherLink 6.0.3,2013-05-15 12:20:00,
2013-05-15 07:25:00,65.2,57.1,30.06,South,179,4.0,5.0,75,0.00,,,0.00,Wunderground v.1.15,2013-05-15 12:25:00,
2013-05-15 07:30:00,65.4,57.3,30.06,South,190,4.0,4.0,75,0.00,,,0.00,Wunderground v.1.15,2013-05-15 12:30:00,
2013-05-15 07:35:00,65.6,57.5,30.05,South,180,4.0,6.0,75,0.00,,,0.00,Wunderground v.1.15,2013-05-15 12:35:00,
2013-05-15 07:40:00,65.9,57.7,30.05,South,188,5.0,5.0,75,0.00,,,0.00,Wunderground v.1.15,2013-05-15 12:40:00,
2013-05-15 07:45:00,66.2,58.0,30.06,South,191,6.0,6.0,75,0.00,,,0.00,Wunderground v.1.15,2013-05-15 12:45:00,
2013-05-15 07:50:00,66.5,58.3,30.06,South,190,7.0,9.0,75,0.00,,,0.00,Wunderground v.1.15,2013-05-15 12:50:00,
2013-05-15 07:55:00,66.8,58.2,30.06,South,190,7.0,9.0,74,0.00,,,0.00,Wunderground v.1.15,2013-05-15 12:55:00,
2013-05-15 08:00:00,67.0,58.8,30.06,South,184,7.0,8.0,75,0.00,,,0.00,Wunderground v.1.15,2013-05-15 13:00:00,
2013-05-15 08:05:00,67.3,59.5,30.06,South,180,7.0,11.0,76,0.00,,,-99.99,WeatherLink 6.0.3,2013-05-15 13:05:00,
2013-05-15 08:10:00,67.5,59.7,30.06,South,191,7.0,7.0,76,0.00,,,0.00,Wunderground v.1.15,2013-05-15 13:10:00,
2013-05-15 08:15:00,67.4,59.2,30.06,South,191,8.0,11.0,75,0.00,,,0.00,Wunderground v.1.15,2013-05-15 13:15:00,
2013-05-15 08:20:00,67.7,59.9,30.06,South,187,8.0,8.0,76,0.00,,,0.00,Wunderground v.1.15,2013-05-15 13:20:00,
2013-05-15 08:29:00,68.6,60.4,30.06,South,191,8.0,9.0,75,0.00,,,0.00,Wunderground v.1.15,2013-05-15 13:29:00,
2013-05-15 08:35:00,69.0,61.1,30.06,South,191,9.0,9.0,76,0.00,,,0.00,Wunderground v.1.15,2013-05-15 13:35:00,
2013-05-15 08:40:00,69.3,61.4,30.06,South,188,9.0,10.0,76,0.00,,,0.00,Wunderground v.1.15,2013-05-15 13:40:00,
2013-05-15 08:45:00,69.4,61.5,30.06,SSW,194,9.0,10.0,76,0.00,,,0.00,Wunderground v.1.15,2013-05-15 13:45:00,
2013-05-15 08:50:00,69.4,62.2,30.06,SSW,202,8.0,17.0,78,0.00,,,-99.99,WeatherLink 6.0.3,2013-05-15 13:50:00,
2013-05-15 08:55:00,69.8,62.3,30.06,South,190,8.0,11.0,77,0.00,,,0.00,Wunderground v.1.15,2013-05-15 13:55:00,
2013-05-15 09:00:00,70.0,62.5,30.05,SSW,200,9.0,9.0,77,0.00,,,0.00,Wunderground v.1.15,2013-05-15 14:00:00,
2013-05-15 09:05:00,70.1,62.6,30.06,SSW,196,9.0,10.0,77,0.00,,,0.00,Wunderground v.1.15,2013-05-15 14:05:00,
2013-05-15 09:10:00,70.1,62.6,30.05,SSW,198,9.0,9.0,77,0.00,,,0.00,Wunderground v.1.15,2013-05-15 14:10:00,
2013-05-15 09:15:00,70.2,63.0,30.05,SSW,205,8.0,9.0,78,0.00,,,0.00,Wunderground v.1.15,2013-05-15 14:15:00,
2013-05-15 09:20:00,70.7,63.5,30.05,SSW,202,8.0,12.0,78,0.00,,,-99.99,WeatherLink 6.0.3,2013-05-15 14:20:00,
2013-05-15 09:24:00,70.9,63.7,30.05,SSW,197,8.0,8.0,78,0.00,,,0.00,Wunderground v.1.15,2013-05-15 14:24:00,
2013-05-15 09:29:00,71.1,63.9,30.05,SSW,205,8.0,8.0,78,0.00,,,0.00,Wunderground v.1.15,2013-05-15 14:29:00,
2013-05-15 09:35:00,70.6,63.4,30.05,SSW,206,8.0,9.0,78,0.00,,,0.00,Wunderground v.1.15,2013-05-15 14:35:00,
2013-05-15 09:48:00,71.1,63.9,30.05,SSW,202,8.0,13.0,78,0.00,,,-99.99,WeatherLink 6.0.3,2013-05-15 14:48:00,
2013-05-15 09:50:00,71.4,63.8,30.05,SSW,202,8.0,14.0,77,0.00,,,-99.99,WeatherLink 6.0.3,2013-05-15 14:50:00,
2013-05-15 09:55:00,71.5,63.9,30.05,South,190,8.0,12.0,77,0.00,,,0.00,Wunderground v.1.15,2013-05-15 14:55:00,
2013-05-15 10:00:00,71.3,64.1,30.05,South,187,8.0,8.0,78,0.00,,,0.00,Wunderground v.1.15,2013-05-15 15:00:00,
2013-05-15 10:05:00,71.3,64.1,30.06,SSW,205,7.0,8.0,78,0.00,,,0.00,Wunderground v.1.15,2013-05-15 15:05:00,
2013-05-15 10:10:00,71.5,64.3,30.06,SSW,203,7.0,7.0,78,0.00,,,0.00,Wunderground v.1.15,2013-05-15 15:10:00,
2013-05-15 10:15:00,71.6,64.4,30.06,SSW,202,7.0,7.0,78,0.00,,,0.00,Wunderground v.1.15,2013-05-15 15:15:00,
2013-05-15 10:20:00,71.9,65.0,30.06,South,180,6.0,11.0,79,0.00,,,-99.99,WeatherLink 6.0.3,2013-05-15 15:20:00,
2013-05-15 10:25:00,71.9,65.0,30.06,SSW,203,6.0,6.0,79,0.00,,,0.00,Wunderground v.1.15,2013-05-15 15:25:00,
2013-05-15 10:30:00,71.8,64.9,30.06,South,190,7.0,9.0,79,0.00,,,0.00,Wunderground v.1.15,2013-05-15 15:30:00,
2013-05-15 10:35:00,72.1,65.2,30.06,SSW,202,6.0,11.0,79,0.00,,,-99.99,WeatherLink 6.0.3,2013-05-15 15:35:00,
2013-05-15 10:40:00,72.3,65.4,30.06,SSW,195,7.0,7.0,79,0.00,,,0.00,Wunderground v.1.15,2013-05-15 15:40:00,
2013-05-15 10:45:00,72.6,65.7,30.06,SSW,194,7.0,11.0,79,0.00,,,0.00,Wunderground v.1.15,2013-05-15 15:45:00,
2013-05-15 10:50:00,73.0,66.1,30.06,SSW,202,6.0,10.0,79,0.00,,,-99.99,WeatherLink 6.0.3,2013-05-15 15:50:00,
2013-05-15 10:55:00,72.4,65.2,30.06,SSW,207,6.0,7.0,78,0.00,,,0.00,Wunderground v.1.15,2013-05-15 15:55:00,
2013-05-15 11:00:00,72.0,65.1,30.06,SSW,195,7.0,7.0,79,0.00,,,0.00,Wunderground v.1.15,2013-05-15 16:00:00,
2013-05-15 11:05:00,71.9,65.0,30.06,SSW,194,7.0,7.0,79,0.00,,,0.00,Wunderground v.1.15,2013-05-15 16:05:00,
2013-05-15 11:10:00,72.3,65.8,30.06,South,190,6.0,6.0,80,0.00,,,0.00,Wunderground v.1.15,2013-05-15 16:10:00,
2013-05-15 11:15:00,72.6,65.7,30.06,South,191,6.0,10.0,79,0.00,,,0.00,Wunderground v.1.15,2013-05-15 16:15:00,
2013-05-15 11:20:00,73.0,66.1,30.06,SSW,202,7.0,13.0,79,0.00,,,-99.99,WeatherLink 6.0.3,2013-05-15 16:20:00,
2013-05-15 11:25:00,72.7,65.4,30.06,SSW,196,8.0,9.0,78,0.00,,,0.00,Wunderground v.1.15,2013-05-15 16:25:00,
2013-05-15 11:30:00,72.7,65.4,30.06,South,187,7.0,9.0,78,0.00,,,0.00,Wunderground v.1.15,2013-05-15 16:30:00,
2013-05-15 11:35:00,72.3,65.1,30.06,South,180,8.0,9.0,78,0.00,,,0.00,Wunderground v.1.15,2013-05-15 16:35:00,
2013-05-15 11:40:00,72.5,65.6,30.06,South,189,8.0,8.0,79,0.00,,,0.00,Wunderground v.1.15,2013-05-15 16:40:00,
2013-05-15 11:45:00,72.6,65.7,30.06,South,186,6.0,8.0,79,0.00,,,0.00,Wunderground v.1.15,2013-05-15 16:45:00,
2013-05-15 11:50:00,72.8,66.3,30.05,SSW,202,4.0,8.0,80,0.00,,,-99.99,WeatherLink 6.0.3,2013-05-15 16:50:00,
2013-05-15 11:55:00,72.9,66.4,30.05,SSW,209,5.0,6.0,80,0.00,,,0.00,Wunderground v.1.15,2013-05-15 16:55:00,
2013-05-15 12:00:00,72.8,65.9,30.05,South,187,5.0,8.0,79,0.00,,,0.00,Wunderground v.1.15,2013-05-15 17:00:00,
2013-05-15 12:05:00,72.6,65.7,30.06,SSW,202,6.0,9.0,79,0.00,,,-99.99,WeatherLink 6.0.3,2013-05-15 17:05:00,
2013-05-15 12:10:00,72.4,65.5,30.06,SSW,194,7.0,7.0,79,0.00,,,0.00,Wunderground v.1.15,2013-05-15 17:10:00,
2013-05-15 12:18:00,72.4,65.5,30.06,SSW,202,6.0,12.0,79,0.00,,,-99.99,WeatherLink 6.0.3,2013-05-15 17:18:00,
2013-05-15 12:20:00,71.9,65.0,30.06,SSW,202,7.0,12.0,79,0.00,,,-99.99,WeatherLink 6.0.3,2013-05-15 17:20:00,
2013-05-15 12:25:00,72.1,65.6,30.06,South,191,6.0,7.0,80,0.00,,,0.00,Wunderground v.1.15,2013-05-15 17:25:00,
2013-05-15 12:30:00,72.6,66.1,30.06,South,190,6.0,6.0,80,0.00,,,0.00,Wunderground v.1.15,2013-05-15 17:30:00,
2013-05-15 12:35:00,73.0,66.1,30.05,SSW,210,6.0,6.0,79,0.00,,,0.00,Wunderground v.1.15,2013-05-15 17:35:00,
2013-05-15 12:40:00,73.0,66.1,30.05,SSW,197,5.0,6.0,79,0.00,,,0.00,Wunderground v.1.15,2013-05-15 17:40:00,
2013-05-15 12:45:00,72.9,65.6,30.05,South,190,5.0,7.0,78,0.00,,,0.00,Wunderground v.1.15,2013-05-15 17:45:00,
2013-05-15 12:50:00,72.8,65.9,30.05,South,180,7.0,13.0,79,0.00,,,-99.99,WeatherLink 6.0.3,2013-05-15 17:50:00,
2013-05-15 12:55:00,72.9,65.6,30.05,SSW,199,7.0,7.0,78,0.00,,,0.00,Wunderground v.1.15,2013-05-15 17:55:00,
2013-05-15 13:00:00,73.0,66.1,30.04,SSW,194,7.0,7.0,79,0.00,,,0.00,Wunderground v.1.15,2013-05-15 18:00:00,
2013-05-15 13:05:00,73.5,66.2,30.04,SSW,202,7.0,10.0,78,0.00,,,-99.99,WeatherLink 6.0.3,2013-05-15 18:05:00,
2013-05-15 13:10:00,74.3,67.0,30.04,SSW,193,7.0,8.0,78,0.00,,,0.00,Wunderground v.1.15,2013-05-15 18:10:00,
2013-05-15 13:18:00,74.2,66.5,30.04,SSW,202,7.0,10.0,77,0.00,,,-99.99,WeatherLink 6.0.3,2013-05-15 18:18:00,
2013-05-15 13:20:00,72.9,65.6,30.04,South,180,7.0,10.0,78,0.00,,,-99.99,WeatherLink 6.0.3,2013-05-15 18:20:00,
2013-05-15 13:25:00,72.7,65.4,30.04,SSW,195,7.0,9.0,78,0.00,,,0.00,Wunderground v.1.15,2013-05-15 18:25:00,
2013-05-15 13:30:00,72.5,65.6,30.04,SSW,205,6.0,6.0,79,0.00,,,0.00,Wunderground v.1.15,2013-05-15 18:30:00,
2013-05-15 13:35:00,72.5,65.6,30.03,SSW,202,5.0,7.0,79,0.00,,,-99.99,WeatherLink 6.0.3,2013-05-15 18:35:00,
2013-05-15 13:45:00,72.2,65.3,30.03,SSW,203,5.0,6.0,79,0.00,,,0.00,Wunderground v.1.15,2013-05-15 18:45:00,
2013-05-15 13:50:00,72.4,65.9,30.03,SSW,201,5.0,7.0,80,0.00,,,0.00,Wunderground v.1.15,2013-05-15 18:50:00,
2013-05-15 13:55:00,72.5,65.6,30.02,South,186,6.0,7.0,79,0.00,,,0.00,Wunderground v.1.15,2013-05-15 18:55:00,
2013-05-15 14:03:00,72.6,65.7,30.02,South,180,6.0,11.0,79,0.00,,,-99.99,WeatherLink 6.0.3,2013-05-15 19:03:00,
2013-05-15 14:05:00,72.9,65.6,30.02,SSW,202,4.0,7.0,78,0.00,,,-99.99,WeatherLink 6.0.3,2013-05-15 19:05:00,
2013-05-15 14:10:00,72.9,66.0,30.02,South,186,3.0,3.0,79,0.00,,,0.00,Wunderground v.1.15,2013-05-15 19:10:00,
2013-05-15 14:15:00,72.8,65.9,30.02,SW,221,1.0,3.0,79,0.00,,,0.00,Wunderground v.1.15,2013-05-15 19:15:00,
2013-05-15 14:20:00,72.7,65.8,30.02,SW,218,2.0,3.0,79,0.00,,,0.00,Wunderground v.1.15,2013-05-15 19:20:00,
2013-05-15 14:25:00,72.6,65.7,30.03,SSW,200,4.0,4.0,79,0.00,,,0.00,Wunderground v.1.15,2013-05-15 19:25:00,
2013-05-15 14:30:00,72.4,65.5,30.03,South,188,5.0,5.0,79,0.00,,,0.00,Wunderground v.1.15,2013-05-15 19:30:00,
2013-05-15 14:35:00,71.9,65.4,30.03,South,180,5.0,9.0,80,0.00,,,-99.99,WeatherLink 6.0.3,2013-05-15 19:35:00,
2013-05-15 14:40:00,71.7,65.2,30.03,South,191,5.0,6.0,80,0.00,,,0.00,Wunderground v.1.15,2013-05-15 19:40:00,
2013-05-15 14:45:00,71.7,65.2,30.02,South,190,5.0,8.0,80,0.00,,,0.00,Wunderground v.1.15,2013-05-15 19:45:00,
2013-05-15 14:50:00,71.8,65.7,30.02,South,180,4.0,7.0,81,0.00,,,-99.99,WeatherLink 6.0.3,2013-05-15 19:50:00,
2013-05-15 14:55:00,71.7,65.6,30.02,South,185,4.0,5.0,81,0.00,,,0.00,Wunderground v.1.15,2013-05-15 19:55:00,
2013-05-15 15:00:00,71.6,65.5,30.02,South,184,4.0,5.0,81,0.00,,,0.00,Wunderground v.1.15,2013-05-15 20:00:00,
2013-05-15 15:05:00,71.3,65.2,30.03,South,184,3.0,5.0,81,0.00,,,0.00,Wunderground v.1.15,2013-05-15 20:05:00,
2013-05-15 15:10:00,71.1,65.0,30.03,SSW,192,3.0,3.0,81,0.00,,,0.00,Wunderground v.1.15,2013-05-15 20:10:00,
2013-05-15 15:18:00,71.0,64.9,30.03,South,180,3.0,6.0,81,0.00,,,-99.99,WeatherLink 6.0.3,2013-05-15 20:18:00,
2013-05-15 15:20:00,70.6,64.8,30.03,SSW,202,3.0,6.0,82,0.00,,,-99.99,WeatherLink 6.0.3,2013-05-15 20:20:00,
2013-05-15 15:25:00,70.4,64.6,30.03,SSW,203,3.0,3.0,82,0.00,,,0.00,Wunderground v.1.15,2013-05-15 20:25:00,
2013-05-15 15:30:00,70.1,64.0,30.03,SSW,199,4.0,5.0,81,0.00,,,0.00,Wunderground v.1.15,2013-05-15 20:30:00,
2013-05-15 15:35:00,69.7,64.0,30.03,SSW,199,6.0,7.0,82,0.00,,,0.00,Wunderground v.1.15,2013-05-15 20:35:00,
2013-05-15 15:40:00,69.1,63.4,30.03,SSW,203,6.0,7.0,82,0.23,,,0.02,Wunderground v.1.15,2013-05-15 20:40:00,
2013-05-15 15:45:00,68.5,62.8,30.03,SSW,193,6.0,7.0,82,0.09,,,0.03,Wunderground v.1.15,2013-05-15 20:45:00,
2013-05-15 15:50:00,67.6,61.9,30.03,SSW,200,6.0,6.0,82,0.15,,,0.04,Wunderground v.1.15,2013-05-15 20:50:00,
2013-05-15 15:55:00,66.9,61.2,30.03,SW,217,6.0,6.0,82,0.16,,,0.05,Wunderground v.1.15,2013-05-15 20:55:00,
2013-05-15 16:00:00,66.6,60.9,30.03,SSW,213,4.0,4.0,82,0.13,,,0.06,Wunderground v.1.15,2013-05-15 21:00:00,
2013-05-15 16:05:00,66.1,60.1,30.03,SSW,202,1.0,5.0,81,0.09,,,-99.99,WeatherLink 6.0.3,2013-05-15 21:05:00,
2013-05-15 16:10:00,65.7,60.1,30.02,SSW,211,1.0,1.0,82,0.25,,,0.10,Wunderground v.1.15,2013-05-15 21:10:00,
2013-05-15 16:15:00,65.6,59.6,30.02,SSW,210,1.0,1.0,81,0.25,,,0.12,Wunderground v.1.15,2013-05-15 21:15:00,
2013-05-15 16:20:00,65.5,60.2,30.01,SSW,210,0.0,0.0,83,0.36,,,0.15,Wunderground v.1.15,2013-05-15 21:20:00,
2013-05-15 16:25:00,65.5,60.2,30.00,SSW,211,0.0,0.0,83,0.22,,,0.18,Wunderground v.1.15,2013-05-15 21:25:00,
2013-05-15 16:33:00,65.5,60.2,30.00,North,-999,0.0,0.0,83,0.18,,,-99.99,WeatherLink 6.0.3,2013-05-15 21:33:00,
2013-05-15 16:35:00,65.5,59.5,29.99,North,-999,0.0,0.0,81,0.19,,,-99.99,WeatherLink 6.0.3,2013-05-15 21:35:00,
2013-05-15 16:40:00,65.5,59.5,30.00,SSW,210,0.0,0.0,81,0.09,,,0.20,Wunderground v.1.15,2013-05-15 21:40:00,
2013-05-15 16:48:00,65.6,59.6,30.00,North,-999,0.0,0.0,81,0.18,,,-99.99,WeatherLink 6.0.3,2013-05-15 21:48:00,
2013-05-15 16:50:00,65.7,59.7,30.00,North,-999,0.0,0.0,81,0.16,,,-99.99,WeatherLink 6.0.3,2013-05-15 21:50:00,
2013-05-15 16:55:00,66.0,59.7,30.00,SSW,210,0.0,0.0,80,0.00,,,0.20,Wunderground v.1.15,2013-05-15 21:55:00,
2013-05-15 17:00:00,66.1,59.7,30.01,SSW,210,0.0,0.0,80,0.00,,,0.20,Wunderground v.1.15,2013-05-15 22:00:00,
2013-05-15 17:05:00,66.1,59.7,30.01,SSW,207,0.0,0.0,80,0.00,,,0.20,Wunderground v.1.15,2013-05-15 22:05:00,
2013-05-15 17:10:00,65.8,59.5,30.01,SSW,205,0.0,0.0,80,0.00,,,0.20,Wunderground v.1.15,2013-05-15 22:10:00,
2013-05-15 17:15:00,65.8,59.5,30.01,SSW,198,1.0,1.0,80,0.00,,,0.20,Wunderground v.1.15,2013-05-15 22:15:00,
2013-05-15 17:20:00,65.8,59.5,30.01,South,191,1.0,1.0,80,0.00,,,0.20,Wunderground v.1.15,2013-05-15 22:20:00,
2013-05-15 17:25:00,66.0,59.7,30.00,South,191,1.0,1.0,80,0.00,,,0.20,Wunderground v.1.15,2013-05-15 22:25:00,
2013-05-15 17:30:00,66.3,59.9,30.00,South,190,0.0,0.0,80,0.00,,,0.20,Wunderground v.1.15,2013-05-15 22:30:00,
2013-05-15 17:35:00,66.6,60.2,29.99,SSE,165,0.0,0.0,80,0.00,,,0.20,Wunderground v.1.15,2013-05-15 22:35:00,
2013-05-15 17:40:00,66.9,60.2,29.99,SSE,165,0.0,0.0,79,0.00,,,0.20,Wunderground v.1.15,2013-05-15 22:40:00,
2013-05-15 17:45:00,67.1,60.7,29.99,South,176,1.0,3.0,80,0.00,,,0.20,Wunderground v.1.15,2013-05-15 22:45:00,
2013-05-15 17:50:00,67.3,60.6,29.99,South,180,2.0,5.0,79,0.00,,,-99.99,WeatherLink 6.0.3,2013-05-15 22:50:00,
2013-05-15 17:54:00,67.4,60.7,29.99,South,175,1.0,2.0,79,0.00,,,0.20,Wunderground v.1.15,2013-05-15 22:54:00,
2013-05-15 17:59:00,67.6,60.9,29.99,South,175,1.0,1.0,79,0.00,,,0.20,Wunderground v.1.15,2013-05-15 22:59:00,
2013-05-15 18:05:00,67.7,61.0,29.99,South,175,1.0,2.0,79,0.00,,,0.20,Wunderground v.1.15,2013-05-15 23:05:00,
2013-05-15 18:10:00,67.8,61.0,29.98,South,175,1.0,1.0,79,0.00,,,0.20,Wunderground v.1.15,2013-05-15 23:10:00,
2013-05-15 18:15:00,67.8,61.4,29.98,SSE,159,1.0,1.0,80,0.00,,,0.20,Wunderground v.1.15,2013-05-15 23:15:00,
2013-05-15 18:20:00,67.8,61.4,29.98,SSE,159,0.0,0.0,80,0.00,,,0.20,Wunderground v.1.15,2013-05-15 23:20:00,
2013-05-15 18:25:00,67.9,61.5,29.98,SSE,158,0.0,2.0,80,0.00,,,0.20,Wunderground v.1.15,2013-05-15 23:25:00,
2013-05-15 18:33:00,67.9,61.5,29.98,SSE,157,1.0,8.0,80,0.00,,,-99.99,WeatherLink 6.0.3,2013-05-15 23:33:00,
2013-05-15 18:35:00,68.0,61.2,29.97,North,-999,0.0,0.0,79,0.00,,,-99.99,WeatherLink 6.0.3,2013-05-15 23:35:00,
2013-05-15 18:40:00,68.0,61.6,29.97,SSE,159,1.0,2.0,80,0.00,,,0.20,Wunderground v.1.15,2013-05-15 23:40:00,
2013-05-15 18:45:00,68.3,61.5,29.97,SSE,159,2.0,2.0,79,0.00,,,0.20,Wunderground v.1.15,2013-05-15 23:45:00,
2013-05-15 18:50:00,68.6,61.8,29.97,SE,138,1.0,1.0,79,0.00,,,0.20,Wunderground v.1.15,2013-05-15 23:50:00,
2013-05-15 18:55:00,68.7,61.9,29.98,SE,138,1.0,1.0,79,0.00,,,0.20,Wunderground v.1.15,2013-05-15 23:55:00,
2013-05-15 19:00:00,68.7,62.3,29.98,SE,140,1.0,1.0,80,0.00,,,0.20,Wunderground v.1.15,2013-05-16 00:00:00,
2013-05-15 19:05:00,68.7,62.3,29.97,SE,140,0.0,1.0,80,0.00,,,0.20,Wunderground v.1.15,2013-05-16 00:05:00,
2013-05-15 19:10:00,68.7,62.3,29.97,SE,140,0.0,0.0,80,0.00,,,0.20,Wunderground v.1.15,2013-05-16 00:10:00,
2013-05-15 19:19:00,68.7,62.3,29.97,North,-999,0.0,0.0,80,0.00,,,-99.99,WeatherLink 6.0.3,2013-05-16 00:19:00,
2013-05-15 19:20:00,68.5,61.7,29.98,SE,135,1.0,5.0,79,0.00,,,-99.99,WeatherLink 6.0.3,2013-05-16 00:20:00,
2013-05-15 19:25:00,68.5,61.7,29.98,SE,139,1.0,1.0,79,0.00,,,0.20,Wunderground v.1.15,2013-05-16 00:25:00,
2013-05-15 19:33:00,68.5,61.7,29.98,SE,135,0.0,2.0,79,0.00,,,-99.99,WeatherLink 6.0.3,2013-05-16 00:33:00,
2013-05-15 19:35:00,68.2,61.4,29.98,North,-999,0.0,0.0,79,0.00,,,-99.99,WeatherLink 6.0.3,2013-05-16 00:35:00,
2013-05-15 19:40:00,68.2,61.4,29.98,SE,138,0.0,0.0,79,0.00,,,0.20,Wunderground v.1.15,2013-05-16 00:40:00,
2013-05-15 19:45:00,68.0,61.2,29.98,SE,138,0.0,0.0,79,0.00,,,0.20,Wunderground v.1.15,2013-05-16 00:45:00,
2013-05-15 19:50:00,67.9,61.1,29.98,SE,135,0.0,5.0,79,0.00,,,-99.99,WeatherLink 6.0.3,2013-05-16 00:50:00,
2013-05-15 19:55:00,67.8,61.0,29.99,SE,136,1.0,2.0,79,0.00,,,0.20,Wunderground v.1.15,2013-05-16 00:55:00,
2013-05-15 20:00:00,67.7,61.0,29.99,SE,137,2.0,3.0,79,0.00,,,0.20,Wunderground v.1.15,2013-05-16 01:00:00,
2013-05-15 20:05:00,67.6,60.9,29.98,SE,135,3.0,6.0,79,0.00,,,-99.99,WeatherLink 6.0.3,2013-05-16 01:05:00,
2013-05-15 20:10:00,67.5,60.8,29.98,SE,138,3.0,3.0,79,0.00,,,0.20,Wunderground v.1.15,2013-05-16 01:10:00,
2013-05-15 20:18:00,67.5,60.8,29.98,SE,135,2.0,5.0,79,0.00,,,-99.99,WeatherLink 6.0.3,2013-05-16 01:18:00,
2013-05-15 20:20:00,67.3,60.6,29.98,SE,135,1.0,4.0,79,0.00,,,-99.99,WeatherLink 6.0.3,2013-05-16 01:20:00,
2013-05-15 20:25:00,67.3,60.6,29.98,SE,136,1.0,2.0,79,0.00,,,0.20,Wunderground v.1.15,2013-05-16 01:25:00,
2013-05-15 20:30:00,67.3,60.6,29.98,SE,138,1.0,4.0,79,0.00,,,0.20,Wunderground v.1.15,2013-05-16 01:30:00,
2013-05-15 20:35:00,67.2,60.5,29.98,SE,138,1.0,4.0,79,0.00,,,0.20,Wunderground v.1.15,2013-05-16 01:35:00,
2013-05-15 20:45:00,67.1,60.4,29.98,SE,137,0.0,0.0,79,0.00,,,0.20,Wunderground v.1.15,2013-05-16 01:45:00,
2013-05-15 20:50:00,67.0,60.3,29.98,SE,138,0.0,0.0,79,0.00,,,0.20,Wunderground v.1.15,2013-05-16 01:50:00,
2013-05-15 20:55:00,67.0,59.9,29.98,SE,137,0.0,0.0,78,0.00,,,0.20,Wunderground v.1.15,2013-05-16 01:55:00,
2013-05-15 21:00:00,67.0,59.9,29.99,SE,138,0.0,0.0,78,0.00,,,0.20,Wunderground v.1.15,2013-05-16 02:00:00,
2013-05-15 21:05:00,67.0,59.9,29.99,North,-999,0.0,0.0,78,0.00,,,-99.99,WeatherLink 6.0.3,2013-05-16 02:05:00,
2013-05-15 21:10:00,67.0,59.9,29.99,SE,146,1.0,3.0,78,0.00,,,0.20,Wunderground v.1.15,2013-05-16 02:10:00,
2013-05-15 21:18:00,67.0,59.9,29.99,SE,135,2.0,4.0,78,0.00,,,-99.99,WeatherLink 6.0.3,2013-05-16 02:18:00,
2013-05-15 21:20:00,67.2,60.1,30.00,SSW,202,3.0,6.0,78,0.02,,,-99.99,WeatherLink 6.0.3,2013-05-16 02:20:00,
2013-05-15 21:25:00,67.3,60.2,30.00,SSW,200,3.0,4.0,78,0.13,,,0.22,Wunderground v.1.15,2013-05-16 02:25:00,
2013-05-15 21:30:00,67.3,60.2,30.00,SSW,192,3.0,3.0,78,0.08,,,0.23,Wunderground v.1.15,2013-05-16 02:30:00,
2013-05-15 21:35:00,67.0,59.9,30.00,South,169,4.0,5.0,78,0.09,,,0.24,Wunderground v.1.15,2013-05-16 02:35:00,
2013-05-15 21:45:00,66.6,59.5,29.99,South,172,4.0,5.0,78,0.06,,,0.24,Wunderground v.1.15,2013-05-16 02:45:00,
2013-05-15 21:50:00,66.2,59.1,29.99,South,171,4.0,4.0,78,0.06,,,0.25,Wunderground v.1.15,2013-05-16 02:50:00,
2013-05-15 21:55:00,66.0,58.9,29.99,SSE,167,3.0,4.0,78,0.08,,,0.26,Wunderground v.1.15,2013-05-16 02:55:00,
2013-05-15 22:03:00,66.0,58.9,29.99,SSE,157,3.0,5.0,78,0.06,,,-99.99,WeatherLink 6.0.3,2013-05-16 03:03:00,
2013-05-15 22:05:00,65.6,58.6,29.99,SSE,157,3.0,6.0,78,0.08,,,-99.99,WeatherLink 6.0.3,2013-05-16 03:05:00,
2013-05-15 22:10:00,65.4,58.4,29.99,South,169,3.0,3.0,78,0.17,,,0.29,Wunderground v.1.15,2013-05-16 03:10:00,
2013-05-15 22:18:00,65.4,58.4,29.99,South,180,3.0,5.0,78,0.10,,,-99.99,WeatherLink 6.0.3,2013-05-16 03:18:00,
2013-05-15 22:20:00,65.2,58.2,29.98,South,180,3.0,5.0,78,0.10,,,-99.99,WeatherLink 6.0.3,2013-05-16 03:20:00,
2013-05-15 22:25:00,65.2,58.2,29.97,SSE,168,3.0,3.0,78,0.13,,,0.33,Wunderground v.1.15,2013-05-16 03:25:00,
2013-05-15 22:30:00,65.0,58.0,29.96,South,169,3.0,3.0,78,0.08,,,0.34,Wunderground v.1.15,2013-05-16 03:30:00,
2013-05-15 22:35:00,64.9,57.9,29.96,South,180,3.0,5.0,78,0.10,,,-99.99,WeatherLink 6.0.3,2013-05-16 03:35:00,
2013-05-15 22:40:00,64.8,57.8,29.95,South,169,3.0,3.0,78,0.05,,,0.34,Wunderground v.1.15,2013-05-16 03:40:00,
2013-05-15 22:45:00,64.6,57.6,29.95,South,169,2.0,3.0,78,0.04,,,0.34,Wunderground v.1.15,2013-05-16 03:45:00,
2013-05-15 22:50:00,64.5,57.5,29.95,South,170,2.0,5.0,78,0.00,,,0.34,Wunderground v.1.15,2013-05-16 03:50:00,
2013-05-15 22:55:00,64.3,57.3,29.95,South,169,3.0,5.0,78,0.00,,,0.34,Wunderground v.1.15,2013-05-16 03:55:00,
2013-05-15 23:00:00,64.3,57.3,29.95,South,170,3.0,4.0,78,0.00,,,0.34,Wunderground v.1.15,2013-05-16 04:00:00,
2013-05-15 23:03:00,64.3,57.3,29.95,South,180,3.0,5.0,78,0.08,,,-99.99,WeatherLink 6.0.3,2013-05-16 04:03:00,
2013-05-15 23:05:00,64.2,57.2,29.95,South,169,3.0,4.0,78,0.00,,,0.34,Wunderground v.1.15,2013-05-16 04:05:00,
2013-05-15 23:09:00,64.1,57.1,29.94,South,170,1.0,1.0,78,0.00,,,0.34,Wunderground v.1.15,2013-05-16 04:09:00,
2013-05-15 23:14:00,64.0,57.0,29.94,South,170,0.0,1.0,78,0.00,,,0.34,Wunderground v.1.15,2013-05-16 04:14:00,
2013-05-15 23:18:00,64.1,57.1,29.94,North,-999,0.0,0.0,78,0.04,,,-99.99,WeatherLink 6.0.3,2013-05-16 04:18:00,
2013-05-15 23:20:00,64.2,57.2,29.94,North,-999,0.0,0.0,78,0.02,,,-99.99,WeatherLink 6.0.3,2013-05-16 04:20:00,
2013-05-15 23:25:00,64.4,57.4,29.94,South,171,1.0,3.0,78,0.00,,,0.34,Wunderground v.1.15,2013-05-16 04:25:00,
2013-05-15 23:30:00,64.7,57.3,29.94,South,171,2.0,2.0,77,0.00,,,0.34,Wunderground v.1.15,2013-05-16 04:30:00,
2013-05-15 23:35:00,65.0,57.6,29.94,South,169,3.0,3.0,77,0.00,,,0.34,Wunderground v.1.15,2013-05-16 04:35:00,
2013-05-15 23:40:00,65.2,57.8,29.94,South,175,3.0,3.0,77,0.00,,,0.34,Wunderground v.1.15,2013-05-16 04:40:00,
2013-05-15 23:48:00,65.3,57.9,29.94,South,180,4.0,7.0,77,0.00,,,-99.99,WeatherLink 6.0.3,2013-05-16 04:48:00,
2013-05-15 23:50:00,65.4,58.0,29.93,South,180,3.0,6.0,77,0.00,,,-99.99,WeatherLink 6.0.3,2013-05-16 04:50:00,
2013-05-15 23:55:00,65.3,57.9,29.94,South,171,3.0,3.0,77,0.00,,,0.34,Wunderground v.1.15,2013-05-16 04:55:00,